Location: Degersen
(52.2871°N, 9.5716°E)
Time: 06:12:57
(UTC+00:00)

Cosmos 1943 Rocket - Pass Details

Date: 20 January 2026
Orbit: 811 x 842 km, 71.0° (Epoch: 18 February)

Event Time Altitude Azimuth Distance (km) Brightness Sun altitude
Exits shadow 03:49:48 45° 134° (SE) 1,103 2.9 -31.4°
Maximum altitude 03:50:29 47° 111° (ESE) 1,066 2.9 -31.3°
Drops below altitude 10° 03:55:45 10° 39° (NE) 2,411 5.1 -30.5°
Sets 03:58:15 0° 34° (NE) 3,350 5.8 -30.1°
